Flag for U.S.A. Weather past 2 weeks in Compton, California, U.S.A.

Now
74 °F

Sunny.


Feels Like: 77 °F
Forecast: 55 / 75 °F
Wind: No wind

Location: Hawthorne Municipal Airport


UV Index: 7 (High)

Visibility: 10 mi


Pressure: 29.97 "Hg

Humidity: 29%

Dew point: 40 °F

Location of ComptonLocation

Historic Weather in Compton

°F

Compton temperature yesterday

Maximum temperature yesterday: 70 °F (at 2:53 PM)
Minimum temperature yesterday: 57 °F (at 2:53 AM)
Average temperature yesterday: 63 °F

Past Weeks' High & Low Weather Summary

 TemperatureHumidityPressure
High82 °F (Apr 9, 12:53 PM)97% (Apr 10, 3:53 AM)30.06 "Hg (Apr 10, 3:53 AM)
Low52 °F (Apr 10, 3:53 AM)16% (Apr 9, 11:53 AM)29.80 "Hg (Apr 16, 5:53 PM)
Average62 °F66%29.95 "Hg
* Reported Apr 9 11:53 AM — Apr 24 11:00 AM, Compton, Weather by CustomWeather, © 2014

Note: Actual official high and low records may vary slightly from our data, if they occured in-between our weather recording intervals... More about our weather records

Advertising

Historic Weather Conditions — Data for Previous 24 hours

 ConditionsComfort  
Time TempWeatherWind HumidityBarometerVisibility
11:00 AM
Apr 24
72 °FSunny.No wind36%29.99 "Hg10 mi
9:53 AM68 °FSunny.5 mph40%29.99 "Hg10 mi
8:53 AM64 °FSunny.5 mph58%29.99 "Hg10 mi
7:53 AM62 °FSunny.5 mph65%29.98 "Hg10 mi
6:53 AM59 °FClear.No wind69%29.97 "Hg10 mi
5:53 AM58 °FClear.No wind70%29.95 "Hg10 mi
4:53 AM57 °FClear.No wind69%29.93 "Hg10 mi
3:53 AM58 °FClear.No wind67%29.93 "Hg10 mi
2:53 AM58 °FClear.No wind70%29.93 "Hg10 mi
1:53 AM59 °FClear.No wind67%29.93 "Hg10 mi
12:53 AM59 °FClear.No wind69%29.95 "Hg10 mi
11:53 PM
Apr 23
61 °FClear.No wind70%29.94 "Hg10 mi
10:53 PM62 °FClear.3 mph62%29.94 "Hg10 mi
9:53 PM62 °FClear.5 mph58%29.94 "Hg10 mi
8:53 PM62 °FClear.3 mph60%29.93 "Hg10 mi
7:53 PM64 °FSunny.3 mph52%29.91 "Hg10 mi
6:53 PM65 °FSunny.7 mph47%29.91 "Hg10 mi
5:53 PM67 °FSunny.10 mph44%29.92 "Hg10 mi
4:53 PM69 °FSunny.13 mph32%29.91 "Hg10 mi
3:53 PM69 °FSunny.10 mph30%29.92 "Hg10 mi
2:53 PM70 °FSunny.14 mph32%29.93 "Hg10 mi
1:53 PM68 °FSunny.14 mph42%29.95 "Hg10 mi
12:53 PM68 °FSunny.12 mph45%29.96 "Hg10 mi
Weather by CustomWeather, © 2014

See weather overview